Torna al catalogo

THOR ABLESTAR DEB

AttivoLEO
NORAD 262·DEBRIS·🇺🇸 United States

Lanciato Jun 29, 1961 da Cape Canaveral Space Force Station

Loading…

Prossimi Passaggi (prossime 24 ore)

TLE

AggiornatoSource: Space-Track

Epoca: Sep 10, 2026, 06:41 UTC

1   262U 61015CJ  26253.27891050  .00001023  00000-0  22780-3 0  9991
2   262  66.4608 189.0987 0054098  20.0697 340.2525 14.60462239370945

Traccia THOR ABLESTAR DEB in tempo reale con AllMySat

Download on the App Store